SCP
0 0 0 0 0 0 0 0 0 0 0 0 0 0 0 0 0 0 0 0 0 0 0 0 0 0 0 0 0 0 0 0 0 0 0 0 0 0 0 0 0 0 0
0 0 0 0 0 0 0 0 0 0 0 0 0 0 0 0 0 0 0 0 0 0 0 0 0 0 0 0 0 0 0 0 0 0 0 0 0 0 0 0 0 0 0
0 0 0 0 0 0 0 0 0 0 0 0 0 0 0 0 0 0 0 0 0 0 0 0 0 0 0 0 0 0 0 0 0 0 0 0 0 0 0 0 0 0 0
0 0 0 0 0 0 0 0 0 0 0 0 0 0 0 0 0 0 0 0 0 0 0 0 0 0 0 0 0 0 0 0 0 0 0 0 0 0 0 0 0 0 0
0 0 0 0 0 0 0 0 0 0 0 0 0 0 0 0 0 0 0 0 0 0 0 0 0 0 0 0 0 0 0 0 0 0 0 0 0 0 0 0 0 0 0
0 0 0 0 0 0 0 0 0 0 0 0 0 0 0 0 0 0 0 0 0 0 0 0 0 0 0 0 0 0 0 0 0 0 0 0 0 0 0 0 0 0 0
0 0 0 0 0 0 0 0 0 0 0 0 0 0 0 0 0 0 0 0 0 0 0 0 0 0 0 0 0 0 0 0 0 0 0 0 0 0 0 0 0 0 0
0 0 0 0 0 0 0 0 0 0 0 0 0 0 0 0 0 0 0 0 0 0 0 0 0 0 0 0 0 0 0 0 0 0 0 0 0 0 0 0 0 0 0
0 0 0 0 0 0 0 0 0 0 0 0 0 0 0 0 0 0 0 0 0 0 0 0 0 0 0 0 0 0 0 0 0 0 0 0 0 0 0 0 0 0 0
0 0 0 0 0 0 0 0 0 0 0 0 0 0 0 0 0 0 0 0 0 0 0 0 0 0 0 0 0 0 0 0 0 0 0 0 0 0 0 0 0 0 0
0 0 0 0 0 0 0 0 0 0 0 0 0 0 0 0 0 0 0 0 0 0 0 0 0 0 0 0 0 0 0 0 0 0 0 0 0 0 0 0 0 0 0
0 0 0 0 0 0 0 0 0 0 0 0 0 0 0 0 0 0 0 0 0 0 0 0 0 0 0 0 0 0 0 0 0 0 0 0 0 0 0 0 0 0 0
0 0 0 0 0 0 0 0 0 0 0 0 0 0 0 0 0 0 0 0 0 0 0 0 0 0 0 0 0 0 0 0 0 0 0 0 0 0 0 0 0 0 0
0 0 0 0 0 0 0 0 0 0 0 0 0 0 0 0 0 0 0 0 0 0 0 0 0 0 0 0 0 0 0 0 0 0 0 0 0 0 0 0 0 0 0
-0 0 0 0 0 0 0 0 0 0 0 0 0 0 0 0 0 0 0 0 0 0 0 0 0 0 0 0 0 0 0 0 0 0 0 0 0 0 0 0 0 0 0
0 0 0 0 0 0 0 0 0 0 0 0 0 0 0 0 0 0 0 0 0 0 0 0 0 0 0 0 0 0 0 0 0 0 0 0 0 0 0 0 0 0 0
0 0 0 0 0 0 0 0 0 0 0 0 0 0 0 0 0 0 0 0 0 0 0 0 0 0 0 0 0 0 0 0 0 0 0 0 0 0 0 0 0 0 0
0 0 0 0 0 0 0 0 0 0 0 0 0 0 0 0 0 0 0 0 0 0 0 0 0 0 0 0 0 0 0 0 0 0 0 0 0 0 0 0 0 0 0
0 0 0 0 0 0 0 0 0 0 0 0 0 0 0 0 0 0 0 0 0 0 0 0 0 0 0 0 0 0 0 0 0 0 0 0 0 0 0 0 0 0 0
0 0 0 0 0 0 0 0 0 0 0 0 0 0 0 0 0 0 0 0 0 0 0 0 0 0 0 0 0 0 0 0 0 0 0 0 0 0 0 0 0 0 0
-0 0 0 0 0 0 0 0 0 0 0 0 0 0 0 0 0 0 0 0 0 0 0 0 0 0 0 0 0 0 0 0 0 0 0 0 0 0 0 0 0 0 0
0 0 0 0 0 0 0 0 0 0 0 0 0 0 0 0 0 0 0 0 0 0 0 0 0 0 0 0 0 0 0 0 0 0 0 0 0 0 0 0 0 0 0
0 0 0 0 0 0 0 0 0 0 0 0 0 0 0 0 0 0 0 0 0 0 0 0 0 0 0 0 0 0 0 0 0 0 0 0 0 0 0 0 0 0 0
0 0 0 0 0 0 0 0 0 0 0 0 0 0 0 0 0 0 0 0 0 0 0 0 0 0 0 0 0 0 0 0 0 0 0 0 0 0 0 0 0 0 0
0 0 0 0 0 0 0 0 0 0 0 0 0 0 0 0 0 0 0 0 0 0 0 0 0 0 0 0 0 0 0 0 0 0 0 0 0 0 0 0 0 0 0
0 0 0 0 0 0 0 0 0 0 0 0 0 0 0 0 0 0 0 0 0 0 0 0 0 0 0 0 0 0 0 0 0 0 0 0 0 0 0 0 0 0 0
Wind_Speed_500mb
57 54 53 53 54 57 60 61 61 56 55 54 53 52 48 43 40 37 30 31 31 29 27 23 21 16 12 12 14 17 17 21 25 31 33 30 28 25 15 24 31 28 26
62 60 58 57 60 59 63 65 65 63 60 58 55 53 48 46 45 42 33 33 35 35 31 29 26 25 22 22 20 21 23 28 29 28 30 23 34 13 33 34 36 30 34
66 67 66 66 61 63 67 66 66 67 63 62 60 60 56 56 50 46 43 40 35 38 35 35 34 32 29 28 27 29 30 34 34 30 21 13 8 39 37 42 29 32 37
74 70 71 70 69 66 61 64 63 66 63 63 66 68 65 60 56 50 46 43 37 40 43 41 37 36 35 36 34 40 37 31 24 22 26 26 25 20 16 35 53 43 48
64 80 76 73 70 66 65 67 66 68 66 67 67 68 70 66 58 51 43 45 41 32 41 43 43 40 42 40 40 37 30 26 26 27 32 33 30 27 29 31 32 47 40
72 70 79 74 70 68 67 70 75 77 75 74 72 73 72 68 63 56 47 48 34 24 27 32 37 41 39 40 37 31 26 24 25 28 28 25 25 27 23 31 38 36 34
79 78 71 74 75 76 73 71 74 82 78 78 79 78 74 69 60 56 51 50 44 39 36 33 33 35 35 35 32 29 26 24 27 28 22 23 25 26 34 36 36 39 39
65 74 76 77 80 83 80 76 72 73 74 74 76 79 77 73 66 60 57 54 49 44 43 40 33 34 34 31 29 25 25 28 27 27 23 22 25 25 25 29 36 40 36
50 58 68 79 84 80 80 76 73 70 70 69 69 72 73 73 70 64 60 60 55 49 43 39 33 35 47 33 28 27 28 27 25 21 19 17 16 20 23 26 31 36 32
63 62 56 62 68 78 79 74 71 68 67 66 66 67 69 68 66 64 63 61 59 53 46 38 38 38 30 28 29 30 30 25 20 15 11 12 13 16 20 26 32 36 38
55 54 58 51 52 58 68 68 67 67 69 69 68 67 66 65 65 62 62 59 58 54 48 42 40 40 37 34 33 30 24 19 14 12 11 13 14 17 22 26 31 34 37
52 47 51 50 49 53 57 60 62 63 63 63 65 67 67 69 68 67 59 59 54 55 55 48 45 43 38 35 30 25 21 16 15 12 12 14 16 20 23 25 26 30 37
39 39 47 52 51 50 52 53 54 55 57 59 59 58 59 60 62 62 60 57 58 56 50 48 42 43 39 35 32 26 20 16 12 12 13 16 19 19 20 22 24 28 33
31 37 49 52 50 51 53 53 53 51 49 48 49 47 48 50 54 61 61 62 62 55 49 48 46 43 40 36 29 22 16 15 13 14 15 17 16 16 16 18 23 28 33
39 45 53 56 54 52 49 46 45 46 46 48 46 44 44 48 58 61 64 62 58 51 51 52 50 45 39 32 25 19 16 16 15 14 15 14 14 12 14 18 24 31 37
54 44 48 54 56 52 49 48 49 48 48 49 47 47 49 57 62 65 64 62 58 56 55 51 45 41 36 29 22 18 18 16 14 14 14 12 9 12 16 22 29 35 38
63 46 44 58 59 56 52 53 52 51 51 49 50 53 56 61 65 65 63 61 62 60 56 50 45 39 32 26 21 18 17 15 15 14 12 10 12 15 20 27 34 37 39
52 44 41 51 62 59 57 55 55 55 54 55 57 59 62 65 66 64 63 64 61 57 53 48 42 35 29 24 19 17 16 17 16 15 13 12 14 18 25 29 31 33 37
63 56 51 49 55 62 62 60 61 61 62 63 63 63 64 67 67 68 67 64 60 56 50 43 38 34 28 23 18 18 20 20 18 18 16 13 15 20 23 26 29 33 35
64 61 50 50 49 54 65 68 69 69 70 69 68 66 66 67 67 68 67 63 57 50 47 43 39 33 26 18 19 24 24 24 22 19 16 16 19 21 25 28 31 34 36
42 46 47 51 51 48 59 73 74 76 71 69 68 70 70 70 68 66 63 60 56 53 49 43 37 30 20 23 27 29 28 26 23 20 19 21 23 25 28 30 29 34 38
33 36 38 40 45 46 52 70 78 75 70 70 73 75 73 72 69 66 63 60 57 54 49 42 34 25 29 27 37 32 29 28 26 24 22 23 25 27 29 29 30 31 34
28 30 33 32 34 40 46 60 71 75 72 75 77 77 75 72 70 67 65 64 60 55 48 37 29 36 26 45 38 35 32 32 30 28 25 26 28 29 29 29 31 31 33
18 20 21 22 27 33 41 53 62 68 72 78 80 78 77 75 71 69 67 65 62 55 39 34 45 28 46 49 44 40 38 38 36 32 30 31 32 33 34 34 34 34 36
13 12 10 8 13 23 34 44 50 60 70 75 77 77 77 75 74 73 71 65 54 40 40 52 36 43 57 51 44 44 42 42 42 37 36 37 36 36 36 37 37 37 38
11 11 9 7 6 12 22 32 40 50 62 71 73 74 74 76 76 75 70 61 50 56 59 47 49 57 56 51 51 49 46 50 49 44 43 42 41 41 41 42 42 41 42
Wind_Direction_500mb
231 227 227 227 225 224 226 226 225 226 226 225 225 226 229 230 233 232 234 237 242 243 249 252 260 262 267 268 274 286 292 297 303 301 293 293 304 310 321 325 325 320 327
234 229 226 227 228 226 227 226 229 227 230 232 233 234 235 236 237 239 239 244 245 246 248 252 256 261 263 267 273 277 282 286 289 296 319 323 317 311 320 318 324 319 325
233 231 226 226 228 230 227 228 229 229 227 230 233 235 237 239 239 236 238 243 247 248 250 253 257 262 262 262 264 267 265 271 285 282 292 308 277 308 319 316 316 318 320
242 235 235 231 229 232 233 233 231 233 231 230 231 235 238 240 243 244 244 251 259 242 250 252 254 256 255 258 261 263 275 272 281 281 281 289 293 296 298 299 310 311 330
251 241 234 231 233 234 235 236 234 233 233 232 234 238 241 244 247 248 250 250 245 247 243 246 247 249 253 257 261 264 263 277 282 290 289 285 290 285 296 310 307 316 340
240 249 241 237 234 234 236 237 237 234 232 233 234 238 241 243 242 239 237 239 240 235 232 241 245 249 250 257 258 258 265 271 281 279 271 274 277 288 296 304 311 317 342
240 242 245 242 236 235 235 236 236 234 232 234 235 238 241 240 238 236 230 235 239 239 246 251 252 252 246 249 250 254 258 265 263 259 260 272 287 292 300 307 316 327 336
242 244 245 247 245 240 238 233 232 231 232 233 235 235 237 238 236 233 229 233 239 241 241 249 247 247 241 236 237 240 248 250 246 275 260 279 292 297 307 319 326 330 333
246 250 250 246 245 241 236 233 231 229 230 233 233 233 234 236 235 232 227 232 233 236 238 245 249 241 241 229 232 245 241 236 249 262 266 275 291 303 314 319 328 335 334
262 257 254 253 248 238 233 229 227 226 228 228 230 232 234 236 237 233 229 224 232 232 235 236 239 229 225 236 237 225 231 240 238 245 257 273 286 297 313 326 329 329 330
283 270 258 251 241 230 227 225 223 222 223 224 225 230 233 235 235 230 225 220 227 224 226 229 227 231 232 227 225 228 218 213 221 233 254 273 292 313 321 325 326 328 330
287 267 247 236 225 220 220 221 220 221 221 224 227 231 234 235 232 226 215 214 215 217 222 225 224 230 217 219 215 206 201 204 222 241 264 291 309 316 322 328 331 336 340
285 259 232 224 219 215 220 224 226 226 227 229 231 231 228 224 219 209 203 205 208 209 211 220 217 205 202 198 193 192 203 216 234 265 285 299 309 321 330 336 343 344 344
280 259 234 226 218 217 222 226 229 228 227 225 221 215 211 206 201 195 199 202 201 207 210 203 197 193 188 187 191 195 214 236 257 276 293 305 315 325 336 345 346 343 341
280 262 237 227 224 222 221 225 225 224 219 214 209 202 198 193 191 195 197 195 204 205 198 194 188 186 185 189 196 211 229 246 264 280 294 301 307 321 338 339 337 339 340
286 269 247 235 230 228 225 222 220 218 214 212 206 199 195 191 193 195 197 198 198 193 192 188 188 186 190 194 205 221 238 252 270 284 293 289 299 313 324 329 332 334 337
270 272 261 244 236 233 228 221 217 215 213 210 207 203 199 196 195 196 197 196 193 190 188 187 189 192 197 202 213 227 240 263 276 279 270 274 297 308 320 329 330 335 337
270 272 278 257 245 235 227 221 217 216 213 210 207 205 202 199 197 197 195 193 192 191 191 191 192 196 203 214 221 238 257 265 264 255 250 267 291 315 324 329 331 335 338
275 276 273 271 254 242 231 223 219 216 213 210 207 204 201 198 196 194 193 193 193 194 195 194 198 203 211 216 227 254 261 255 246 237 244 270 301 314 319 326 329 334 335
270 273 274 275 266 245 234 227 222 218 216 211 207 203 200 199 199 198 196 197 196 197 198 200 201 207 212 228 246 256 252 246 237 241 258 278 297 309 321 325 327 333 334
269 271 269 267 266 251 233 228 225 224 220 213 207 205 203 203 202 201 201 199 198 198 201 204 208 212 232 236 254 247 244 241 245 257 276 294 305 312 318 319 323 327 331
278 279 276 269 258 250 239 230 228 226 219 213 209 206 204 203 202 203 201 200 201 203 204 207 211 235 230 262 247 242 241 247 256 264 277 290 300 306 308 311 319 322 324
286 281 280 272 259 248 241 235 231 226 219 213 210 207 205 205 204 204 205 205 204 206 207 214 233 229 257 251 242 241 243 248 253 260 272 283 288 296 302 306 309 314 317
309 293 285 273 263 253 243 235 232 226 219 215 211 208 207 206 207 207 209 210 209 206 216 231 231 242 256 242 241 243 245 248 254 261 269 278 286 291 297 303 306 308 311
326 320 311 283 257 254 250 243 234 225 218 214 212 209 209 210 210 210 212 211 207 231 243 229 232 254 248 244 243 246 248 253 259 265 270 276 284 288 292 295 298 301 305
43 41 32 3 309 269 255 246 234 224 218 214 212 212 213 213 213 214 210 208 237 235 225 231 245 251 244 240 245 249 251 256 262 267 272 278 282 286 291 295 297 299 304
Wind_Speed_850mb
57 54 53 53 54 57 60 61 61 56 55 54 53 52 48 43 40 37 30 31 31 29 27 23 21 16 12 12 14 17 17 21 25 31 33 30 28 25 15 24 31 28 26
62 60 58 57 60 59 63 65 65 63 60 58 55 53 48 46 45 42 33 33 35 35 31 29 26 25 22 22 20 21 23 28 29 28 30 23 34 13 33 34 36 30 34
66 67 66 66 61 63 67 66 66 67 63 62 60 60 56 56 50 46 43 40 35 38 35 35 34 32 29 28 27 29 30 34 34 30 21 13 8 39 37 42 29 32 37
74 70 71 70 69 66 61 64 63 66 63 63 66 68 65 60 56 50 46 43 37 40 43 41 37 36 35 36 34 40 37 31 24 22 26 26 25 20 16 35 53 43 48
64 80 76 73 70 66 65 67 66 68 66 67 67 68 70 66 58 51 43 45 41 32 41 43 43 40 42 40 40 37 30 26 26 27 32 33 30 27 29 31 32 47 40
72 70 79 74 70 68 67 70 75 77 75 74 72 73 72 68 63 56 47 48 34 24 27 32 37 41 39 40 37 31 26 24 25 28 28 25 25 27 23 31 38 36 34
79 78 71 74 75 76 73 71 74 82 78 78 79 78 74 69 60 56 51 50 44 39 36 33 33 35 35 35 32 29 26 24 27 28 22 23 25 26 34 36 36 39 39
65 74 76 77 80 83 80 76 72 73 74 74 76 79 77 73 66 60 57 54 49 44 43 40 33 34 34 31 29 25 25 28 27 27 23 22 25 25 25 29 36 40 36
50 58 68 79 84 80 80 76 73 70 70 69 69 72 73 73 70 64 60 60 55 49 43 39 33 35 47 33 28 27 28 27 25 21 19 17 16 20 23 26 31 36 32
63 62 56 62 68 78 79 74 71 68 67 66 66 67 69 68 66 64 63 61 59 53 46 38 38 38 30 28 29 30 30 25 20 15 11 12 13 16 20 26 32 36 38
55 54 58 51 52 58 68 68 67 67 69 69 68 67 66 65 65 62 62 59 58 54 48 42 40 40 37 34 33 30 24 19 14 12 11 13 14 17 22 26 31 34 37
52 47 51 50 49 53 57 60 62 63 63 63 65 67 67 69 68 67 59 59 54 55 55 48 45 43 38 35 30 25 21 16 15 12 12 14 16 20 23 25 26 30 37
39 39 47 52 51 50 52 53 54 55 57 59 59 58 59 60 62 62 60 57 58 56 50 48 42 43 39 35 32 26 20 16 12 12 13 16 19 19 20 22 24 28 33
31 37 49 52 50 51 53 53 53 51 49 48 49 47 48 50 54 61 61 62 62 55 49 48 46 43 40 36 29 22 16 15 13 14 15 17 16 16 16 18 23 28 33
39 45 53 56 54 52 49 46 45 46 46 48 46 44 44 48 58 61 64 62 58 51 51 52 50 45 39 32 25 19 16 16 15 14 15 14 14 12 14 18 24 31 37
54 44 48 54 56 52 49 48 49 48 48 49 47 47 49 57 62 65 64 62 58 56 55 51 45 41 36 29 22 18 18 16 14 14 14 12 9 12 16 22 29 35 38
63 46 44 58 59 56 52 53 52 51 51 49 50 53 56 61 65 65 63 61 62 60 56 50 45 39 32 26 21 18 17 15 15 14 12 10 12 15 20 27 34 37 39
52 44 41 51 62 59 57 55 55 55 54 55 57 59 62 65 66 64 63 64 61 57 53 48 42 35 29 24 19 17 16 17 16 15 13 12 14 18 25 29 31 33 37
63 56 51 49 55 62 62 60 61 61 62 63 63 63 64 67 67 68 67 64 60 56 50 43 38 34 28 23 18 18 20 20 18 18 16 13 15 20 23 26 29 33 35
64 61 50 50 49 54 65 68 69 69 70 69 68 66 66 67 67 68 67 63 57 50 47 43 39 33 26 18 19 24 24 24 22 19 16 16 19 21 25 28 31 34 36
42 46 47 51 51 48 59 73 74 76 71 69 68 70 70 70 68 66 63 60 56 53 49 43 37 30 20 23 27 29 28 26 23 20 19 21 23 25 28 30 29 34 38
33 36 38 40 45 46 52 70 78 75 70 70 73 75 73 72 69 66 63 60 57 54 49 42 34 25 29 27 37 32 29 28 26 24 22 23 25 27 29 29 30 31 34
28 30 33 32 34 40 46 60 71 75 72 75 77 77 75 72 70 67 65 64 60 55 48 37 29 36 26 45 38 35 32 32 30 28 25 26 28 29 29 29 31 31 33
18 20 21 22 27 33 41 53 62 68 72 78 80 78 77 75 71 69 67 65 62 55 39 34 45 28 46 49 44 40 38 38 36 32 30 31 32 33 34 34 34 34 36
13 12 10 8 13 23 34 44 50 60 70 75 77 77 77 75 74 73 71 65 54 40 40 52 36 43 57 51 44 44 42 42 42 37 36 37 36 36 36 37 37 37 38
11 11 9 7 6 12 22 32 40 50 62 71 73 74 74 76 76 75 70 61 50 56 59 47 49 57 56 51 51 49 46 50 49 44 43 42 41 41 41 42 42 41 42
Wind_Direction_850mb
231 227 227 227 225 224 226 226 225 226 226 225 225 226 229 230 233 232 234 237 242 243 249 252 260 262 267 268 274 286 292 297 303 301 293 293 304 310 321 325 325 320 327
234 229 226 227 228 226 227 226 229 227 230 232 233 234 235 236 237 239 239 244 245 246 248 252 256 261 263 267 273 277 282 286 289 296 319 323 317 311 320 318 324 319 325
233 231 226 226 228 230 227 228 229 229 227 230 233 235 237 239 239 236 238 243 247 248 250 253 257 262 262 262 264 267 265 271 285 282 292 308 277 308 319 316 316 318 320
242 235 235 231 229 232 233 233 231 233 231 230 231 235 238 240 243 244 244 251 259 242 250 252 254 256 255 258 261 263 275 272 281 281 281 289 293 296 298 299 310 311 330
251 241 234 231 233 234 235 236 234 233 233 232 234 238 241 244 247 248 250 250 245 247 243 246 247 249 253 257 261 264 263 277 282 290 289 285 290 285 296 310 307 316 340
240 249 241 237 234 234 236 237 237 234 232 233 234 238 241 243 242 239 237 239 240 235 232 241 245 249 250 257 258 258 265 271 281 279 271 274 277 288 296 304 311 317 342
240 242 245 242 236 235 235 236 236 234 232 234 235 238 241 240 238 236 230 235 239 239 246 251 252 252 246 249 250 254 258 265 263 259 260 272 287 292 300 307 316 327 336
242 244 245 247 245 240 238 233 232 231 232 233 235 235 237 238 236 233 229 233 239 241 241 249 247 247 241 236 237 240 248 250 246 275 260 279 292 297 307 319 326 330 333
246 250 250 246 245 241 236 233 231 229 230 233 233 233 234 236 235 232 227 232 233 236 238 245 249 241 241 229 232 245 241 236 249 262 266 275 291 303 314 319 328 335 334
262 257 254 253 248 238 233 229 227 226 228 228 230 232 234 236 237 233 229 224 232 232 235 236 239 229 225 236 237 225 231 240 238 245 257 273 286 297 313 326 329 329 330
283 270 258 251 241 230 227 225 223 222 223 224 225 230 233 235 235 230 225 220 227 224 226 229 227 231 232 227 225 228 218 213 221 233 254 273 292 313 321 325 326 328 330
287 267 247 236 225 220 220 221 220 221 221 224 227 231 234 235 232 226 215 214 215 217 222 225 224 230 217 219 215 206 201 204 222 241 264 291 309 316 322 328 331 336 340
285 259 232 224 219 215 220 224 226 226 227 229 231 231 228 224 219 209 203 205 208 209 211 220 217 205 202 198 193 192 203 216 234 265 285 299 309 321 330 336 343 344 344
280 259 234 226 218 217 222 226 229 228 227 225 221 215 211 206 201 195 199 202 201 207 210 203 197 193 188 187 191 195 214 236 257 276 293 305 315 325 336 345 346 343 341
280 262 237 227 224 222 221 225 225 224 219 214 209 202 198 193 191 195 197 195 204 205 198 194 188 186 185 189 196 211 229 246 264 280 294 301 307 321 338 339 337 339 340
286 269 247 235 230 228 225 222 220 218 214 212 206 199 195 191 193 195 197 198 198 193 192 188 188 186 190 194 205 221 238 252 270 284 293 289 299 313 324 329 332 334 337
270 272 261 244 236 233 228 221 217 215 213 210 207 203 199 196 195 196 197 196 193 190 188 187 189 192 197 202 213 227 240 263 276 279 270 274 297 308 320 329 330 335 337
270 272 278 257 245 235 227 221 217 216 213 210 207 205 202 199 197 197 195 193 192 191 191 191 192 196 203 214 221 238 257 265 264 255 250 267 291 315 324 329 331 335 338
275 276 273 271 254 242 231 223 219 216 213 210 207 204 201 198 196 194 193 193 193 194 195 194 198 203 211 216 227 254 261 255 246 237 244 270 301 314 319 326 329 334 335
270 273 274 275 266 245 234 227 222 218 216 211 207 203 200 199 199 198 196 197 196 197 198 200 201 207 212 228 246 256 252 246 237 241 258 278 297 309 321 325 327 333 334
269 271 269 267 266 251 233 228 225 224 220 213 207 205 203 203 202 201 201 199 198 198 201 204 208 212 232 236 254 247 244 241 245 257 276 294 305 312 318 319 323 327 331
278 279 276 269 258 250 239 230 228 226 219 213 209 206 204 203 202 203 201 200 201 203 204 207 211 235 230 262 247 242 241 247 256 264 277 290 300 306 308 311 319 322 324
286 281 280 272 259 248 241 235 231 226 219 213 210 207 205 205 204 204 205 205 204 206 207 214 233 229 257 251 242 241 243 248 253 260 272 283 288 296 302 306 309 314 317
309 293 285 273 263 253 243 235 232 226 219 215 211 208 207 206 207 207 209 210 209 206 216 231 231 242 256 242 241 243 245 248 254 261 269 278 286 291 297 303 306 308 311
326 320 311 283 257 254 250 243 234 225 218 214 212 209 209 210 210 210 212 211 207 231 243 229 232 254 248 244 243 246 248 253 259 265 270 276 284 288 292 295 298 301 305
43 41 32 3 309 269 255 246 234 224 218 214 212 212 213 213 213 214 210 208 237 235 225 231 245 251 244 240 245 249 251 256 262 267 272 278 282 286 291 295 297 299 304